Location: Orangeville
(43.9200°N, 80.0943°W)
Time: 13:34:44
(UTC-05:00)

ISS - Pass Details

Date: 07 December 2021
Orbit: 413 x 422 km, 51.6° (Epoch: 22 January)

Event Time Altitude Azimuth Distance (km) Brightness Sun altitude
Rises 17:16:29 0° 302° (WNW) 2,385 0.6 -6.2°
Reaches altitude 10° 17:18:36 10° 303° (WNW) 1,515 -0.5 -6.5°
Maximum altitude 17:22:01 78° 31° (NNE) 436 -3.8 -7.1°
Drops below altitude 10° 17:25:23 10° 118° (ESE) 1,502 -1.3 -7.7°
Enters shadow 17:27:50 -1° 120° (ESE) 2,507 -0.2 -8.1°
